| time (UTC) | temp C | wind direction | speed KPH | gust KPH | rain 1hr cm | rain 24hr cm | rain mn cm | humidity % | barometer mb |
| 20260509013020 | 20 | 23 | 11.3 | 24.1 | 0.00 | 0.00 | 0.00 | 25 | 1010.8 |
| 20260509011520 | 20 | 1 | 14.5 | 24.1 | 0.00 | 0.00 | 0.00 | 24 | 1010.7 |
| 20260509010025 | 21 | 353 | 12.9 | 25.7 | 0.00 | 0.00 | 0.00 | 24 | 1010.6 |
| 20260509004531 | 21 | 328 | 14.5 | 27.4 | 0.00 | 0.00 | 0.00 | 24 | 1010.7 |
| 20260509003118 | 21 | 328 | 12.9 | 30.6 | 0.00 | 0.00 | 0.00 | 23 | 1010.7 |
| 20260509001547 | 21 | 335 | 14.5 | 27.4 | 0.00 | 0.00 | 0.00 | 23 | 1010.6 |
| 20260509000049 | 22 | 310 | 16.1 | 27.4 | 0.00 | 0.00 | 0.00 | 22 | 1010.7 |
| 20260509000046 | 22 | 347 | 16.1 | 27.4 | 0.00 | 0.00 | 0.00 | 22 | 1010.7 |
| 20260508234550 | 22 | 314 | 12.9 | 29.0 | 0.00 | 0.00 | 0.00 | 21 | 1010.7 |
| 20260508233049 | 22 | 321 | 11.3 | 19.3 | 0.00 | 0.00 | 0.00 | 21 | 1010.6 |
| 20260508231611 | 22 | 303 | 11.3 | 22.5 | 0.00 | 0.00 | 0.00 | 21 | 1010.5 |
| 20260508230056 | 23 | 299 | 11.3 | 25.7 | 0.00 | 0.00 | 0.00 | 20 | 1010.6 |
| 20260508224540 | 23 | 307 | 14.5 | 30.6 | 0.00 | 0.00 | 0.00 | 20 | 1010.6 |
| 20260508223044 | 23 | 326 | 12.9 | 24.1 | 0.00 | 0.00 | 0.00 | 20 | 1010.6 |
| 20260508221540 | 23 | 287 | 11.3 | 25.7 | 0.00 | 0.00 | 0.00 | 19 | 1010.6 |
| 20260508220040 | 23 | 332 | 12.9 | 24.1 | 0.00 | 0.00 | 0.00 | 20 | 1010.7 |
| 20260508214545 | 23 | 340 | 14.5 | 29.0 | 0.00 | 0.00 | 0.00 | 20 | 1010.7 |
| 20260508213033 | 23 | 326 | 14.5 | 30.6 | 0.00 | 0.00 | 0.00 | 20 | 1010.7 |
| 20260508211539 | 23 | 304 | 12.9 | 29.0 | 0.00 | 0.00 | 0.00 | 21 | 1010.7 |
| 20260508210032 | 23 | 326 | 11.3 | 24.1 | 0.00 | 0.00 | 0.00 | 21 | 1010.8 |
| 20260508204528 | 23 | 319 | 12.9 | 25.7 | 0.00 | 0.00 | 0.00 | 20 | 1010.9 |
| 20260508203028 | 23 | 300 | 9.7 | 24.1 | 0.00 | 0.00 | 0.00 | 21 | 1010.9 |
| 20260508201526 | 23 | 306 | 8.0 | 22.5 | 0.00 | 0.00 | 0.00 | 22 | 1010.9 |
| 20260508200026 | 23 | 316 | 9.7 | 17.7 | 0.00 | 0.00 | 0.00 | 21 | 1010.9 |
| 20260508194520 | 23 | 283 | 9.7 | 25.7 | 0.00 | 0.00 | 0.00 | 21 | 1011.0 |
| 20260508193019 | 23 | 316 | 11.3 | 24.1 | 0.00 | 0.00 | 0.00 | 22 | 1011.1 |
| 20260508191530 | 22 | 272 | 12.9 | 22.5 | 0.00 | 0.00 | 0.00 | 24 | 1011.2 |
| 20260508190018 | 22 | 285 | 4.8 | 19.3 | 0.00 | 0.00 | 0.00 | 28 | 1011.7 |
| 20260508184541 | 22 | 264 | 8.0 | 17.7 | 0.00 | 0.00 | 0.00 | 28 | 1011.8 |
| 20260508183039 | 22 | 255 | 6.4 | 16.1 | 0.00 | 0.00 | 0.00 | 29 | 1012.1 |
| 20260508181505 | 22 | 290 | 6.4 | 12.9 | 0.00 | 0.00 | 0.00 | 29 | 1012.4 |
| 20260508180003 | 21 | 302 | 8.0 | 17.7 | 0.00 | 0.00 | 0.00 | 29 | 1012.5 |
| 20260508174611 | 21 | 276 | 8.0 | 17.7 | 0.00 | 0.00 | 0.00 | 31 | 1012.6 |
| 20260508173056 | 20 | 312 | 6.4 | 19.3 | 0.00 | 0.00 | 0.00 | 32 | 1012.8 |
| 20260508171552 | 20 | 250 | 4.8 | 16.1 | 0.00 | 0.00 | 0.00 | 36 | 1012.9 |
| 20260508170048 | 19 | 336 | 6.4 | 14.5 | 0.00 | 0.00 | 0.00 | 37 | 1013.2 |
| 20260508164544 | 18 | 277 | 8.0 | 17.7 | 0.00 | 0.00 | 0.00 | 42 | 1013.1 |
| 20260508163041 | 18 | 257 | 6.4 | 12.9 | 0.00 | 0.00 | 0.00 | 44 | 1013.4 |
| 20260508161537 | 17 | 278 | 4.8 | 14.5 | 0.00 | 0.00 | 0.00 | 47 | 1013.5 |
| 20260508160033 | 16 | 296 | 3.2 | 12.9 | 0.00 | 0.00 | 0.00 | 49 | 1013.7 |
| 20260508154528 | 16 | 231 | 8.0 | 14.5 | 0.00 | 0.00 | 0.00 | 52 | 1013.7 |
| 20260508153024 | 15 | 285 | 6.4 | 17.7 | 0.00 | 0.00 | 0.00 | 53 | 1014.0 |
| 20260508151520 | 14 | 273 | 4.8 | 11.3 | 0.00 | 0.00 | 0.00 | 56 | 1014.1 |
| 20260508150021 | 13 | 265 | 6.4 | 14.5 | 0.00 | 0.00 | 0.00 | 59 | 1014.3 |
| 20260508144513 | 13 | 227 | 6.4 | 9.7 | 0.00 | 0.00 | 0.00 | 59 | 1014.3 |
| 20260508143013 | 12 | 248 | 3.2 | 11.3 | 0.00 | 0.00 | 0.00 | 62 | 1014.5 |
| 20260508141505 | 11 | 262 | 3.2 | 16.1 | 0.00 | 0.00 | 0.00 | 65 | 1014.6 |
| 20260508140109 | 10 | 238 | 4.8 | 11.3 | 0.00 | 0.00 | 0.00 | 66 | 1014.5 |
| 20260508134606 | 8 | 236 | 4.8 | 11.3 | 0.00 | 0.00 | 0.00 | 68 | 1014.6 |
| 20260508133057 | 8 | 228 | 1.6 | 6.4 | 0.00 | 0.00 | 0.00 | 69 | 1014.6 |
| 20260508131555 | 7 | 161 | 0.0 | 0.0 | 0.00 | 0.00 | 0.00 | 70 | 1014.5 |
| 20260508130054 | 6 | 165 | 0.0 | 1.6 | 0.00 | 0.00 | 0.00 | 70 | 1014.5 |
| 20260508124524 | 5 | 323 | 0.0 | 1.6 | 0.00 | 0.00 | 0.00 | 75 | 1014.5 |
| 20260508123024 | 3 | 298 | 0.0 | 3.2 | 0.00 | 0.00 | 0.00 | 77 | 1014.5 |
| 20260508121552 | 3 | 296 | 0.0 | 1.6 | 0.00 | 0.00 | 0.00 | 76 | 1014.4 |
| 20260508120051 | 3 | 295 | 0.0 | 3.2 | 0.00 | 0.00 | 0.00 | 76 | 1014.4 |
| 20260508114551 | 5 | 296 | 1.6 | 1.6 | 0.00 | 0.00 | 0.00 | 73 | 1014.6 |
| 20260508113044 | 6 | 295 | 0.0 | 3.2 | 0.00 | 0.00 | 0.00 | 73 | 1014.6 |
| 20260508111556 | 5 | 343 | 1.6 | 6.4 | 0.00 | 0.00 | 0.00 | 74 | 1014.6 |
| 20260508110037 | 5 | 355 | 0.0 | 3.2 | 0.00 | 0.00 | 0.00 | 72 | 1014.6 |
| 20260508104537 | 6 | 311 | 0.0 | 3.2 | 0.00 | 0.00 | 0.00 | 68 | 1014.6 |
| 20260508103036 | 6 | 297 | 0.0 | 1.6 | 0.00 | 0.00 | 0.00 | 67 | 1014.8 |
| 20260508101532 | 7 | 306 | 0.0 | 4.8 | 0.00 | 0.00 | 0.00 | 65 | 1014.8 |
| 20260508100031 | 7 | 299 | 0.0 | 4.8 | 0.00 | 0.00 | 0.00 | 64 | 1014.9 |
| 20260508094530 | 7 | 300 | 1.6 | 6.4 | 0.00 | 0.00 | 0.00 | 64 | 1014.7 |
| 20260508093028 | 8 | 331 | 1.6 | 6.4 | 0.00 | 0.00 | 0.00 | 62 | 1014.8 |
| 20260508091527 | 6 | 300 | 1.6 | 4.8 | 0.00 | 0.00 | 0.00 | 66 | 1014.8 |
| 20260508090026 | 6 | 307 | 0.0 | 3.2 | 0.00 | 0.00 | 0.00 | 66 | 1014.8 |
| 20260508084525 | 5 | 49 | 0.0 | 3.2 | 0.00 | 0.00 | 0.00 | 66 | 1014.9 |
| 20260508083021 | 5 | 95 | 0.0 | 3.2 | 0.00 | 0.00 | 0.00 | 61 | 1014.7 |
| 20260508081519 | 6 | 302 | 0.0 | 3.2 | 0.00 | 0.00 | 0.00 | 59 | 1014.6 |
| 20260508080018 | 7 | 280 | 1.6 | 6.4 | 0.00 | 0.00 | 0.00 | 56 | 1014.8 |
| 20260508074518 | 7 | 301 | 0.0 | 4.8 | 0.00 | 0.00 | 0.00 | 57 | 1014.7 |
| 20260508073050 | 7 | 301 | 3.2 | 6.4 | 0.00 | 0.00 | 0.00 | 58 | 1014.6 |
| 20260508071546 | 7 | 300 | 0.0 | 4.8 | 0.00 | 0.00 | 0.00 | 56 | 1014.7 |
| 20260508070043 | 9 | 342 | 1.6 | 6.4 | 0.00 | 0.00 | 0.00 | 54 | 1014.7 |
| 20260508064541 | 8 | 283 | 3.2 | 8.0 | 0.00 | 0.00 | 0.00 | 57 | 1014.6 |
| 20260508063038 | 7 | 330 | 0.0 | 8.0 | 0.00 | 0.00 | 0.00 | 62 | 1014.6 |
| 20260508061538 | 6 | 257 | 0.0 | 0.0 | 0.00 | 0.00 | 0.00 | 65 | 1014.5 |
| 20260508060031 | 6 | 333 | 0.0 | 0.0 | 0.00 | 0.00 | 0.00 | 63 | 1014.5 |
| 20260508054530 | 7 | 60 | 0.0 | 0.0 | 0.00 | 0.00 | 0.00 | 63 | 1014.5 |
| 20260508053031 | 7 | 62 | 1.6 | 3.2 | 0.00 | 0.00 | 0.00 | 60 | 1014.5 |
| 20260508051531 | 7 | 62 | 1.6 | 6.4 | 0.00 | 0.00 | 0.00 | 61 | 1014.5 |
| 20260508050025 | 7 | 295 | 0.0 | 3.2 | 0.00 | 0.00 | 0.00 | 60 | 1014.3 |
| 20260508044525 | 8 | 302 | 0.0 | 1.6 | 0.00 | 0.00 | 0.00 | 58 | 1014.4 |
| 20260508043125 | 10 | 298 | 0.0 | 3.2 | 0.00 | 0.00 | 0.00 | 56 | 1014.4 |
| 20260508041523 | 11 | 295 | 0.0 | 4.8 | 0.00 | 0.00 | 0.00 | 54 | 1014.4 |
| 20260508040022 | 11 | 282 | 0.0 | 3.2 | 0.00 | 0.00 | 0.00 | 53 | 1014.4 |
| 20260508034523 | 13 | 261 | 0.0 | 4.8 | 0.00 | 0.00 | 0.00 | 49 | 1014.3 |
| 20260508033020 | 13 | 288 | 4.8 | 9.7 | 0.00 | 0.00 | 0.00 | 47 | 1014.4 |
| 20260508031524 | 14 | 257 | 3.2 | 9.7 | 0.00 | 0.00 | 0.00 | 47 | 1014.2 |
| 20260508030049 | 15 | 240 | 8.0 | 12.9 | 0.00 | 0.00 | 0.00 | 45 | 1014.0 |
| 20260508024555 | 15 | 276 | 6.4 | 11.3 | 0.00 | 0.00 | 0.00 | 44 | 1013.9 |
| 20260508023045 | 15 | 245 | 0.0 | 6.4 | 0.00 | 0.00 | 0.00 | 47 | 1013.7 |
| 20260508021545 | 16 | 249 | 0.0 | 3.2 | 0.00 | 0.00 | 0.00 | 48 | 1013.5 |
| 20260508020045 | 16 | 255 | 0.0 | 0.0 | 0.00 | 0.00 | 0.00 | 48 | 1013.3 |
| 20260508014544 | 16 | 247 | 4.8 | 11.3 | 0.00 | 0.00 | 0.00 | 46 | 1013.2 |